Вернуться в каталог

STARLINK-33972

АктивенСвязьVLEO
NORAD 63893·PAYLOAD·🇺🇸 United States

Запущен May 10, 2025 с Cape Canaveral Space Force Station

Loading…

Ближайшие Пролёты (ближайшие 24 часа)

TLE

СвежийSource: CelesTrak SupGP

Эпоха: Sep 14, 2026, 21:19 UTC

1 63893C 25095D   26257.88868056  .00001151  00000+0  41691-4 0  2570
2 63893  42.9997 187.7852 0001227 262.6816  59.8162 15.27587107    17

Отслеживайте STARLINK-33972 в реальном времени с AllMySat

Download on the App Store